FW0538 Weather Reports


Display with metric or nautical units.
time (UTC)temp
F
wind
direction
speed
MPH
gust
MPH
rain 1hr
in
rain 24hr
in
rain mn
in
humidity
%
barometer
mb
20260905034554 56 195 18.0 31.0 0.00 0.00 0.00 58 1009.8
20260905033053 57 300 10.0 18.0 0.00 0.00 0.00 56 1009.6
20260905031551 57 251 8.0 17.0 0.00 0.00 0.00 56 1009.6
20260905024549 58 94 4.0 11.0 0.00 0.00 0.00 53 1009.7
20260905023047 57 285 4.0 19.0 0.00 0.00 0.00 54 1009.4
20260905021547 58 243 13.0 20.0 0.00 0.00 0.00 55 1008.8
20260905020059 59 228 14.0 22.0 0.00 0.00 0.00 54 1008.9
20260905014547 60 241 20.0 26.0 0.00 0.00 0.00 53 1008.7
20260905013044 61 250 14.0 23.0 0.00 0.00 0.00 52 1008.8
20260905011542 61 248 16.0 23.0 0.00 0.00 0.00 52 1008.8
20260905010042 62 255 12.0 21.0 0.00 0.00 0.00 51 1009.0
20260905004555 62 233 14.0 20.0 0.00 0.00 0.00 50 1009.0
20260905003040 63 231 12.0 22.0 0.00 0.00 0.00 49 1009.1
20260905001540 64 271 16.0 25.0 0.00 0.00 0.00 48 1009.0
20260905000041 64 230 14.0 21.0 0.00 0.00 0.00 47 1009.2
20260904234536 64 207 14.0 20.0 0.00 0.00 0.00 47 1009.2
20260904233044 65 231 9.0 21.0 0.00 0.00 0.00 45 1009.2
20260904231535 65 285 9.0 19.0 0.00 0.00 0.00 45 1009.1
20260904230032 65 185 11.0 19.0 0.00 0.00 0.00 43 1009.1
20260904224531 66 231 7.0 20.0 0.00 0.00 0.00 45 1009.1
20260904223031 66 242 14.0 20.0 0.00 0.00 0.00 44 1009.1
20260904221628 66 213 11.0 18.0 0.00 0.00 0.00 43 1009.1
20260904220028 65 226 11.0 20.0 0.00 0.00 0.00 45 1009.1
20260904214527 65 244 12.0 21.0 0.00 0.00 0.00 46 1009.1
20260904213029 65 286 13.0 20.0 0.00 0.00 0.00 46 1009.2
20260904211525 65 233 12.0 19.0 0.00 0.00 0.00 46 1009.2
20260904210028 65 229 14.0 23.0 0.00 0.00 0.00 45 1009.1
20260904204522 64 257 10.0 21.0 0.00 0.00 0.00 48 1009.1
20260904203021 65 223 14.0 24.0 0.00 0.00 0.00 47 1009.2
20260904201519 64 199 15.0 24.0 0.00 0.00 0.00 48 1009.2
20260904200019 65 223 13.0 22.0 0.00 0.00 0.00 46 1009.2
20260904194520 64 248 17.0 22.0 0.00 0.00 0.00 48 1009.1
20260904193016 64 210 14.0 22.0 0.00 0.00 0.00 48 1009.1
20260904191513 63 204 14.0 24.0 0.00 0.00 0.00 49 1009.0
20260904190010 62 198 13.0 21.0 0.00 0.00 0.00 52 1009.0
20260904184509 60 287 10.0 21.0 0.00 0.00 0.00 56 1008.8
20260904183006 60 252 11.0 22.0 0.00 0.00 0.00 56 1008.8
20260904181503 59 203 14.0 25.0 0.00 0.00 0.00 58 1008.7
20260904180002 58 241 13.0 16.0 0.00 0.00 0.00 61 1008.7
20260904174608 58 244 11.0 16.0 0.00 0.00 0.00 64 1008.8
20260904173105 58 233 8.0 15.0 0.00 0.00 0.00 64 1008.7
20260904171601 56 221 8.0 13.0 0.00 0.00 0.00 69 1008.6
20260904170055 55 322 3.0 7.0 0.00 0.00 0.00 72 1008.5
20260904164554 55 299 3.0 7.0 0.00 0.00 0.00 73 1008.6
20260904163051 56 203 4.0 10.0 0.00 0.00 0.00 68 1008.3
20260904161550 57 170 4.0 12.0 0.00 0.00 0.00 65 1008.2
20260904160049 57 259 7.0 10.0 0.00 0.00 0.00 62 1008.0
20260904154547 57 233 5.0 11.0 0.00 0.00 0.00 62 1007.8
20260904153055 56 227 6.0 11.0 0.00 0.00 0.00 65 1007.9
20260904151546 56 258 4.0 8.0 0.00 0.00 0.00 66 1007.9
20260904150045 56 232 0.0 1.0 0.00 0.00 0.00 64 1007.9
20260904144544 56 237 0.0 4.0 0.00 0.00 0.00 64 1007.6
20260904143042 56 246 2.0 7.0 0.00 0.00 0.00 64 1007.5
20260904141542 56 257 3.0 8.0 0.00 0.00 0.00 64 1007.1
20260904140039 55 272 5.0 8.0 0.00 0.00 0.00 65 1007.1
20260904134537 55 274 4.0 7.0 0.00 0.00 0.00 65 1006.9
20260904133038 55 264 3.0 8.0 0.00 0.00 0.00 64 1006.9
20260904131554 55 259 3.0 5.0 0.00 0.00 0.00 64 1006.7
20260904130039 56 269 4.0 8.0 0.00 0.00 0.00 64 1006.7
20260904124533 56 260 5.0 8.0 0.00 0.00 0.00 63 1006.7
20260904123034 56 238 4.0 7.0 0.00 0.00 0.00 63 1006.5
20260904121533 56 229 4.0 6.0 0.00 0.00 0.00 63 1006.4
20260904120037 56 226 1.0 5.0 0.00 0.00 0.00 61 1006.6
20260904114531 56 233 0.0 7.0 0.00 0.00 0.00 61 1006.5
20260904113031 55 34 0.0 0.0 0.00 0.00 0.00 66 1006.4
20260904111540 55 34 0.0 0.0 0.00 0.00 0.00 65 1006.4
20260904110028 55 34 0.0 1.0 0.00 0.00 0.00 66 1006.4
20260904104528 55 34 0.0 1.0 0.00 0.00 0.00 65 1006.3
20260904103034 55 34 0.0 4.0 0.00 0.00 0.00 67 1006.1
20260904101525 55 81 0.0 0.0 0.00 0.00 0.00 67 1006.1
20260904100025 55 199 0.0 0.0 0.00 0.00 0.00 66 1006.2
20260904094524 55 193 0.0 2.0 0.00 0.00 0.00 68 1006.1
20260904093023 55 236 2.0 3.0 0.00 0.00 0.00 68 1006.2
20260904091523 55 243 0.0 4.0 0.00 0.00 0.00 67 1006.2
20260904090021 55 240 3.0 10.0 0.00 0.00 0.00 69 1006.4
20260904084521 55 237 4.0 8.0 0.00 0.00 0.00 69 1006.5
20260904083024 54 251 5.0 11.0 0.00 0.00 0.00 70 1006.5
20260904081518 55 241 6.0 11.0 0.00 0.00 0.00 71 1006.5
20260904080017 55 227 5.0 11.0 0.00 0.00 0.00 70 1006.5
20260904074534 54 262 9.0 13.0 0.00 0.00 0.00 72 1006.4
20260904073019 55 242 6.0 12.0 0.00 0.00 0.00 68 1006.6
20260904071509 57 236 8.0 16.0 0.00 0.00 0.00 63 1006.5
20260904070009 56 120 9.0 15.0 0.00 0.00 0.00 62 1006.5
20260904064513 57 277 9.0 15.0 0.00 0.00 0.00 62 1006.3
20260904063004 57 226 8.0 15.0 0.00 0.00 0.00 58 1006.3
20260904061503 58 210 6.0 14.0 0.00 0.00 0.00 57 1006.4
20260904060004 57 224 3.0 8.0 0.00 0.00 0.00 57 1006.3
20260904054506 57 232 8.0 10.0 0.00 0.00 0.00 58 1006.5
20260904053001 57 231 3.0 8.0 0.00 0.00 0.00 58 1006.4
20260904051614 58 251 3.0 9.0 0.00 0.00 0.00 56 1006.6
20260904050101 57 227 7.0 13.0 0.00 0.00 0.00 57 1006.6
20260904044608 57 238 5.0 12.0 0.00 0.00 0.00 57 1006.5
20260904043101 58 259 11.0 19.0 0.00 0.00 0.00 56 1006.6
20260904041602 57 226 10.0 15.0 0.00 0.00 0.00 57 1006.7
20260904040108 58 218 9.0 16.0 0.00 0.00 0.00 56 1006.6